Aussat K3

operational
NORAD ID: 18350 Int'l Des: 1987-078 Owner: AUSS Country: AU
HEOCIRCULAR

About Aussat K3

Description loading...

Live Position

Loading 3D Globe...

Upcoming Passes

Altitude History

Altitude vs Time

uPlot chart will show altitude changes over time

Two-Line Element Set

1 18350U 87078A 26061.35173933 .00000016 00000-0 00000-0 0 9993
2 18350 14.4152 352.0017 0006595 358.0653 183.6413 0.98904250 44987
Epoch: Mar 2, 2026 • Age: 34 hours

Current Status

Altitude 36201.3 km
Velocity 3.06 km/s
Sub-Earth Point -4.02°S, 118.73°W
Launch Date Sep 16, 1987
Age 38.4 years
Type other

Technical Details

Classification Payload
Mass 653.00 kg
Dry Mass 500.00 kg
Total Mass 1196.00 kg
Length 6.60 m
Diameter 2.20 m
Span 6.60 m
Shape Cyl
Manufacturer HSES
Bus Type HS-376
Phase Status Unknown Active Status
Owner/State AUSS/AU

Large Constellations

Loading constellations...